Regional Weather Roundup
Issued by NWS Wakefield, VA

Home | Current Version | Previous Version | Graphics & Text | Print | Product List | Glossary On
Versions: 1 2 3 4 5 6 7 8 9 10 11 12 13 14 15 16 17 18 19 20 21 22 23 24 25 26 27 28 29 30 31 32 33 34 35 36 37 38 39 40 41 42 43 44 45 46 47 48 49 50
000
ASUS41 KAKQ 140310
RWRAKQ

REGIONAL WEATHER ROUNDUP
NATIONAL WEATHER SERVICE WAKEFIELD VA
1100 PM EDT SUN JUL 13 2014

Note: "fair" indicates few or no clouds below 12,000 feet with no
significant weather and/or obstructions to visibility. * = Denotes
station may not report precipitation (e.g., rain,snow,etc.),
thunder or fog.

VAZ042-051-052>054-056-140400-
NORTHERN VIRGINIA

CITY           SKY/WX    TMP DP  RH WIND       PRES   REMARKS
WASH NATIONAL  TSTM      76  69  79 N6        29.98F
DULLES         LGT RAIN  72  70  93 E6        29.97F
FORT BELVOIR   CLOUDY    77  70  80 CALM      29.98S
QUANTICO       CLOUDY    85  69  58 CALM      29.96S
FREDERICKSBRG* CLOUDY    85  69  59 S8        29.95F
STAFFORD*      CLOUDY    83  69  62 S6        30.00S
WARRENTON      CLOUDY    80  76  89 CALM      29.97S
CULPEPER*      CLOUDY   N/A N/A N/A CALM      29.96F
MANASSAS*        N/A    N/A N/A N/A MISG        N/A
LEESBURG*      CLOUDY    72  72 100 CALM      29.98F
WINCHESTER     LGT RAIN  70  68  94 CALM      29.98F
$$

VAZ048-049-060>072-079>083-140400-
CENTRAL AND SOUTH CENTRAL VIRGINIA...AND NORTH CENTRAL NORTH CAROLINA

CITY           SKY/WX    TMP DP  RH WIND       PRES   REMARKS
RICHMOND       CLOUDY    83  69  62 S9        29.98S
CHESTERFIELD*  PTCLDY    79  63  57 S6        30.00F
HANOVER        MOCLDY    84  66  54 S8        29.99S
TAPPAHANNOCK*  MOCLDY    82  65  57 S6        29.99S
CHARLOTTSVILLE CLOUDY    80  71  74 S8        29.97S
ORANGE*        CLOUDY    79  70  73 CALM      29.98F
LOUISA*        MOCLDY    81  70  69 S5        29.97S
FARMVILLE*     CLEAR     79  68  69 S6        29.97F
SOUTH HILL*    CLEAR     81  70  69 S7        30.07S
ROANOKE RAPIDS CLEAR     77  72  83 S7        30.03S
RALEIGH        PTCLDY    82  67  60 S7        30.03S
$$

VAZ088>098-140400-
SOUTHEAST VIRGINIA

CITY           SKY/WX    TMP DP  RH WIND       PRES   REMARKS
NORFOLK        CLEAR     80  72  76 S10       30.02R
VIRGINIA BEACH MOCLDY    80  73  79 S12       30.01S
NORFOLK NAVAL  MOCLDY    82  73  74 S10       30.03R
WEST POINT*    PTCLDY    83  68  61 S7        30.01S
NEWPORT NEWS   CLEAR     85  70  60 S9        30.01R
LANGLEY AFB    PTCLDY    81  73  77 S7        30.01R
FORT EUSTIS    NOT AVBL
WILLIAMSBURG*  CLEAR     82  73  74 S8        30.01S
FRANKLIN*      CLEAR     79  72  78 S7        30.02S
WAKEFIELD      CLEAR     79  71  76 S5        30.01R
$$

VAZ020-022-025-037-045-140400-
WESTERN AND SOUTHWEST VIRGINIA

CITY           SKY/WX    TMP DP  RH WIND       PRES   REMARKS
STAUNTON*      CLOUDY    76  67  73 SW3       30.02S
HOT SPRINGS VA PTCLDY    69  60  73 SW13      30.17S
LYNCHBURG      PTCLDY    75  71  87 CALM      30.02S
DANVILLE       CLEAR     78  68  71 S3        30.02S
MARTINSVILLE   CLEAR     73  70  88 CALM      30.06S
ROANOKE        PTCLDY    81  67  62 SW5       30.04R
BLACKSBURG     CLEAR     72  70  94 CALM      30.11S
DUBLIN*        CLEAR     72  66  80 W3        30.10S
MARION*        CLEAR     71  69  95 CALM      30.15S
HILLSVILLE*    CLEAR     71  67  85 S6        30.13F
RICHLANDS*     PTCLDY    77  66  68 SW8       30.12S
WISE*          PTCLDY    73  63  68 SW8       30.13R
ABINGDON*      PTCLDY    74  70  86 CALM      30.10S
$$

MDZ021>025-VAZ099-100-140400-
SOUTHERN MARYLAND AND THE DELMARVA PENINSULA

CITY           SKY/WX    TMP DP  RH WIND       PRES   REMARKS
PATUXENT RIVER MOCLDY    80  70  71 S5        29.97S
BAY BRIDGE APT   N/A     77  66  69 NW12G22   30.00R
LEONARDTOWN    MOCLDY    81  68  65 S6        29.99S
DOVER          MOCLDY    78  74  88 S13       29.95R
GEORGETOWN     MOCLDY    78  71  79 S15       29.99S
EASTON         MOCLDY    82  75  79 SW7       30.01
CAMBRIDGE      MOCLDY    81  73  78 S7        29.97F
SALISBURY      CLOUDY    79  72  79 S8        29.99S
OCEAN CITY     MOCLDY    79  73  82 SW16G24   30.00S
WALLOPS ISLAND MOCLDY    77  73  87 SW14      30.01S
ACCOMACK*        N/A     77  72  83 S7        30.00F
$$

NCZ012>017-030>032-140400-
EASTERN NORTH CAROLINA

CITY           SKY/WX    TMP DP  RH WIND       PRES   REMARKS
ELIZABETH CITY CLEAR     78  73  84 S8        30.04S
AHOSKIE*       CLEAR     76  72  86 S5        30.04S
EDENTON*       CLEAR     80  73  79 SW9       30.04S
CURRITUCK*     CLEAR     79  70  75 S3        30.04F
KILL DEVIL HLS CLEAR     79  73  83 SW7       30.04S
MANTEO         NOT AVBL
CAPE HATTERAS  CLEAR     80  74  81 SW7       30.07R
GOLDSBORO      CLEAR     78  78  98 S7        30.03R
WASHINGTON     CLEAR     78  72  83 S6        30.06R
GREENVILLE     CLEAR     79  73  83 S9        30.07R
NEW BERN       CLEAR     77  73  87 S3        30.07S
WILMINGTON     PTCLDY    78  74  87 S5        30.07S
$$

VAZ048-140400-
ELSEWHERE

CITY           SKY/WX    TMP DP  RH WIND       PRES   REMARKS
HARRISBURG PA  CLOUDY    75  72  90 SW8       29.93S
BALTIMORE      LGT RAIN  71  68  90 CALM      29.97F
ANNAPOLIS      LGT RAIN  75  70  84 NW6       29.97R
ANDREWS AFB    LGT RAIN  75  70  84 N5        29.98R
WILMINGTON DE  CLOUDY    83  71  67 S13G21    29.94R
PHILADELPHIA   CLOUDY    84  68  58 S16G23    29.93S
WILDWOOD NJ*   MOCLDY    73  70  88 S10       29.99F
ATLANTIC CITY  CLOUDY    75  72  88 S15G21    29.97S
HENDERSON NC   CLEAR     78  65  65 S6        30.03S
GREENSBORO     CLEAR     79  67  66 SW5       30.04S
ROCKY MOUNT    CLEAR     79  74  84 S5        30.04R
FAYETTEVILLE   CLEAR     80  73  79 S9        30.05R
CHARLOTTE      CLOUDY    81  66  60 S5        30.05F
$$

VAZ100-140400-
MARINE

STATION/POSITION TIME  TEMP    WIND        PRES    WAVE   SWELL
                       AIR SEA DIR/SP/G            HT/PER HT/PER
                 (UTC) (F)     (DEG/KT/KT) (MB)    (FT/S) (FT/S)
44066 TX TWR #4  0300   73 72  200/ 19/ 21 1015.3S   5/ 5
CAPE MAY NJ      0300   73 75  190/  9/ 15 1015.1R
LEWES DE         0300   78 70  210/  7/ 12 1014.7S
15NM E FENWICK I 0300   75 72              1015.5R   4/ 5
OCEAN-CITY-INLET 0300   72 67  210/ 13/ 15 1015.6F
WACHAPREAGUE VA  0300   78 82  210/  9/ 14 1016.0F
THOMAS POINT MD  0300   78 80  320/ 10/ 12 1015.6R
GOOSES REEF MD   0300   82     200/ 10/ 12 1015.2S
COVE POINT MD    0300   81     200/  9/ 11 1014.8S
SOLOMONS ISLAND  0300      81                N/A
BISHOPS HEAD MD  0300   81 81  190/ 14/ 17 1015.0S
PINEY POINT MD   0300          220/ 12/ 12   N/A
POTOMAC MD       0300   83     210/ 12/ 14 1014.5S
CAMBRIDGE MD     0300   81 81  180/  5/  6 1014.5F
LEWISETTA VA     0300   82 82  210/ 10/ 13 1014.8S
RAPPAHANNOCK LGT 0300          160/ 12/ 13 1016.3F
STINGRAY PT      0300   83     190/ 12/ 14 1014.9S
YORK RVR RNG VA  0300   83     210/ 13/ 15 1015.4F
YORKTOWN VA      0300   82 81  200/  9/ 11 1015.5F
JAMESTOWN VA     0300   80     190/  8/ 10   N/A
DOMINION TERM VA 0300   81     190/  9/ 11 1016.4R
KIPTOPEKE VA     0300      78  190/  9/ 11   N/A
CHES BAY BRIDGE  0300   80 76  160/  9/ 12 1016.0S
CAPE HENRY VA    0300   80     180/  8/ 14 1015.4S
WILLOUBY STN VA  0300   88     190/ 13/ 15 1015.6S
S CRANEY ISL VA  0300          170/ 11/ 14 1016.4S
CAPE HENRY BUOY  0200      77                N/A     3/ 4
1ST LANDING BUOY 0300   79     180/ 12/ 14 1016.1S
CAPE CHARLES BUO 0300      71                N/A     3/ 4
OFFSHORE WE BUOY 0300      78                N/A     4/ 4
64NM E OF VA BCH 0300   77 75  190/ 12/ 14 1017.0S   2/ 7   2/ 7
DUCK PIER NC     0300   80 64  190/  9/ 12 1016.5S
44056 DUCK FRF   0300                        N/A     2/ 7
OREGON INLET NC  0300   80 84  200/ 12/ 15 1017.6S
HATTERAS NC      0300   80 83  210/  7/ 12 1018.5S
DIAMOND SHLS NC  0300          VRB 14/ 16  1017.8F   2/ 7   2/ 7
CAPE LOOKOUT NC  0200   81     190/ 12/ 14 1018.0R
$$


USA.gov is the U.S. government's official web portal to all federal, state and local government web resources and services.